{"data":{"norad_id":57858,"epoch":"2026-09-20T22:11:56.596704Z","epoch_age_seconds":98479,"freshness":"FRESH","line1":"1 57858U 23141U   26263.92496061  .00000281  00000+0  19443-4 0  9995","line2":"2 57858  53.1607  95.5564 0001057  74.8760 285.2359 15.34389896170240","mean_motion":15.34389896,"eccentricity":0.0001057,"inclination_deg":53.1607,"raan_deg":95.5564,"arg_perigee_deg":74.876,"mean_anomaly_deg":285.2359,"bstar":1.9443e-5,"rev_number":17024,"period_min":93.848376071423,"perigee_km":462.01019160152,"apogee_km":463.45635157693,"semimajor_km":6840.8702715892,"source":"CELESTRAK","updated_at":"2026-09-21T09:00:33.714893Z"}}